Rincon Central (216, 909) Station Data

Red Flag Warning: No
Fire Weather Zone: 250
SDGE Region: North East
Lat/Lon: 33.271/-116.946

Observations

Time Wind Speed/Gust Temp(F) RH Fuel Moist Fuel Temp(F) Dewpt(F) Tmax(F) Tmin(F) Accum Precip 10-min Precip SL Press(mb)
4/26 2:40am 38 2 G 5 49° 85% - - 45° 54.5° 48.6° - - -
4/26 2:30am 163 1 G 3 50° 85% - - 46° 54.5° 48.8° - - -
4/26 2:20am 98 2 G 3 50° 84% - - 45° 54.5° 48.8° - - -
4/26 2:10am 104 0 G 1 50° 85% - - 45° 54.5° 48.8° - - -
4/26 2:00am 94 1 G 2 49° 84% - - 45° 54.5° 48.8° - - -
4/26 1:50am 1 1 G 4 52° 79% - - 46° 54.5° 49.4° - - -
4/26 1:40am 60 2 G 4 52° 81% - - 46° 54.5° 49.4° - - -
4/26 1:30am 76 3 G 4 50° 82% - - 45° 54.5° 49.4° - - -
4/26 1:20am 85 2 G 4 50° 83% - - 45° 54.5° 49.4° - - -
4/26 1:10am 105 1 G 3 51° 79% - - 45° 54.5° 49.8° - - -
4/26 1:00am 68 2 G 3 52° 79% - - 45° 54.5° 50.9° - - -
4/26 12:50am 68 1 G 4 52° 79% - - 45° 54.5° 50.9° - - -
4/26 12:40am 145 1 G 2 51° 79% - - 45° 54.5° 50.9° - - -
4/26 12:30am 203 1 G 2 52° 77% - - 45° 54.5° 51.3° - - -
4/26 12:20am 25 2 G 3 53° 74% - - 45° 54.5° 52.3° - - -
4/26 12:10am 323 3 G 4 53° 75% - - 45° 54° 52.3° - - -
4/26 12:00am 123 1 G 2 54° 73% - - 46° 69.8° 52.7° - - -
4/25 11:50pm 52 1 G 2 54° 72% - - 46° 69.8° 53.6° - - -
4/25 11:40pm 176 1 G 2 55° 71% - - 46° 69.8° 53.6° - - -
4/25 11:30pm 97 2 G 3 55° 70% - - 45° 69.8° 53.6° - - -
4/25 11:20pm 64 3 G 4 55° 71% - - 45° 69.8° 53.6° - - -
4/25 11:10pm 108 1 G 3 55° 70% - - 45° 69.8° 53.8° - - -
4/25 11:00pm 94 1 G 2 56° 68% - - 45° 69.8° 54.9° - - -
4/25 10:50pm 58 1 G 3 55° 69% - - 45° 69.8° 54.9° - - -
4/25 10:40pm 73 2 G 3 56° 69% - - 45° 69.8° 55.1° - - -
4/25 10:30pm 87 2 G 3 56° 68% - - 45° 69.8° 55.2° - - -
4/25 10:20pm 58 1 G 3 56° 67% - - 46° 69.8° 55.6° - - -
4/25 10:10pm 89 1 G 2 56° 67% - - 46° 69.8° 55.9° - - -
4/25 10:00pm 81 2 G 2 57° 67% - - 46° 69.8° 56° - - -
4/25 9:50pm 89 1 G 2 57° 67% - - 46° 69.8° 56.2° - - -
4/25 9:40pm 82 2 G 3 57° 67% - - 46° 69.8° 56.2° - - -
4/25 9:30pm 56 1 G 2 57° 66% - - 46° 69.8° 56.3° - - -
4/25 9:20pm 241 1 G 2 58° 64% - - 46° 69.8° 56.7° - - -
4/25 9:10pm 86 1 G 2 59° 61% - - 45° 69.8° 56.7° - - -
4/25 9:00pm 65 2 G 3 59° 62% - - 45° 69.8° 56.7° - - -
4/25 8:50pm 76 2 G 4 59° 62% - - 45° 69.8° 56.7° - - -
4/25 8:40pm 70 3 G 4 59° 61% - - 46° 69.8° 56.7° - - -
4/25 8:30pm 75 2 G 3 59° 61% - - 46° 69.8° 56.7° - - -
4/25 8:20pm 54 3 G 3 60° 60% - - 46° 69.8° 56.7° - - -
4/25 8:10pm 53 3 G 6 61° 58% - - 46° 69.8° 56.7° - - -
4/25 8:00pm 53 3 G 5 61° 58% - - 46° 69.8° 56.7° - - -
4/25 7:50pm 103 2 G 4 61° 57% - - 46° 69.8° 56.7° - - -
4/25 7:40pm 198 1 G 5 62° 55% - - 46° 69.8° 56.7° - - -
4/25 7:30pm 172 2 G 6 62° 55% - - 46° 69.8° 56.7° - - -
4/25 7:20pm 214 2 G 4 63° 56% - - 47° 69.8° 56.7° - - -
4/25 7:10pm 194 1 G 3 64° 55% - - 47° 69.8° 56.7° - - -
4/25 7:00pm 298 3 G 5 64° 56% - - 49° 69.8° 56.7° - - -
4/25 6:50pm 300 2 G 4 65° 57% - - 49° 69.8° 56.7° - - -
4/25 6:40pm 250 4 G 8 65° 56% - - 49° 69.8° 56.7° - - -
4/25 6:30pm 264 4 G 7 66° 55% - - 50° 69.8° 56.7° - - -
4/25 6:20pm 277 4 G 8 66° 55% - - 49° 69.8° 56.7° - - -
4/25 6:10pm 286 6 G 8 66° 55% - - 50° 69.8° 56.7° - - -
4/25 6:00pm 278 6 G 8 66° 56% - - 50° 69.8° 56.7° - - -
4/25 5:50pm 285 6 G 9 67° 56% - - 50° 69.8° 56.7° - - -
4/25 5:40pm 277 7 G 10 67° 56% - - 51° 69.8° 56.7° - - -
4/25 5:30pm 296 7 G 10 67° 56% - - 51° 69.8° 56.7° - - -
4/25 5:20pm 315 5 G 11 67° 54% - - 50° 69.8° 56.7° - - -
4/25 5:10pm 321 5 G 9 67° 54% - - 50° 69.8° 56.7° - - -
4/25 5:00pm 284 4 G 8 67° 55% - - 50° 69.8° 56.7° - - -
4/25 4:50pm 275 3 G 8 67° 54% - - 50° 69.8° 56.7° - - -
4/25 4:40pm 273 6 G 11 67° 54% - - 50° 69.8° 56.7° - - -
4/25 4:30pm 288 6 G 10 67° 55% - - 51° 69.8° 56.7° - - -
4/25 4:20pm 270 6 G 10 67° 55% - - 51° 69.8° 56.7° - - -
4/25 4:10pm 284 7 G 14 68° 54% - - 50° 69.8° 56.7° - - -
4/25 4:00pm 292 6 G 11 69° 53% - - 51° 69.8° 56.7° - - -
4/25 3:50pm 268 6 G 11 68° 53% - - 50° 69.8° 56.7° - - -
4/25 3:40pm 288 7 G 12 68° 53% - - 51° 69.8° 56.7° - - -
4/25 3:30pm 285 8 G 15 68° 54% - - 51° 69.8° 56.7° - - -
4/25 3:20pm 292 6 G 11 68° 53% - - 50° 69.8° 56.7° - - -
4/25 3:10pm 288 6 G 11 68° 53% - - 50° 69.8° 56.7° - - -
4/25 3:00pm 282 8 G 14 68° 53% - - 51° 69.8° 56.7° - - -
4/25 2:50pm 317 5 G 12 68° 52% - - 50° 69.8° 56.7° - - -
4/25 2:40pm 292 6 G 10 68° 53% - - 50° 69.8° 56.7° - - -
4/25 2:30pm 287 7 G 10 68° 53% - - 50° 69.8° 56.7° - - -
4/25 2:20pm 299 4 G 14 68° 52% - - 50° 69.8° 56.7° - - -
4/25 2:10pm 285 6 G 12 68° 52% - - 50° 69.8° 56.7° - - -
4/25 2:00pm 264 7 G 11 69° 52% - - 50° 69.8° 56.7° - - -
4/25 1:50pm 302 6 G 12 68° 52% - - 50° 69.8° 56.7° - - -
4/25 1:40pm 304 7 G 11 69° 51% - - 50° 69.8° 56.7° - - -
4/25 1:30pm 307 8 G 13 68° 51% - - 50° 69.8° 56.7° - - -
4/25 1:20pm 261 4 G 8 69° 51% - - 50° 69.8° 56.7° - - -
4/25 1:10pm 280 5 G 13 69° 51% - - 50° 69.7° 56.7° - - -
4/25 1:00pm 325 6 G 11 68° 53% - - 50° 69.4° 56.7° - - -
4/25 12:50pm 305 5 G 11 68° 53% - - 50° 69.3° 56.7° - - -
4/25 12:40pm 292 6 G 11 68° 53% - - 50° 68.4° 56.7° - - -
4/25 12:30pm 315 4 G 9 67° 52% - - 49° 68.4° 56.7° - - -
4/25 12:20pm 326 5 G 10 67° 51% - - 49° 68.4° 56.7° - - -
4/25 12:10pm 306 5 G 9 67° 52% - - 49° 67.8° 56.7° - - -
4/25 12:00pm 270 5 G 11 67° 52% - - 49° 67.8° 56.7° - - -
4/25 11:50am 272 5 G 9 67° 51% - - 48° 67.7° 56.7° - - -
4/25 11:40am 255 3 G 12 66° 53% - - 49° 67.4° 56.7° - - -
4/25 11:30am 292 4 G 7 66° 54% - - 49° 66.5° 56.7° - - -
4/25 11:20am 239 4 G 9 66° 55% - - 49° 66.5° 56.7° - - -
4/25 11:10am 312 3 G 10 65° 56% - - 49° 66.2° 56.7° - - -
4/25 11:00am 218 4 G 8 65° 56% - - 49° 66.2° 56.7° - - -
4/25 10:50am 276 3 G 5 64° 57% - - 49° 65.4° 56.7° - - -
4/25 10:40am 225 3 G 4 64° 60% - - 49° 64.3° 56.7° - - -
4/25 10:30am 224 3 G 7 63° 62% - - 49° 63.5° 56.7° - - -
4/25 10:20am 236 4 G 8 63° 62% - - 50° 63.5° 56.7° - - -
4/25 10:10am 143 2 G 4 63° 62% - - 50° 63.5° 56.7° - - -
4/25 10:00am 17 2 G 4 63° 63% - - 50° 63.5° 56.7° - - -
4/25 9:50am 94 3 G 6 61° 65% - - 50° 62.3° 56.7° - - -
4/25 9:40am 89 2 G 6 62° 66% - - 50° 62.3° 56.7° - - -
4/25 9:30am 71 2 G 4 61° 66% - - 50° 61.8° 56.7° - - -
4/25 9:20am 307 2 G 6 61° 68% - - 50° 61.5° 56.7° - - -
4/25 9:10am 225 3 G 6 60° 70% - - 51° 60.9° 56.7° - - -
4/25 9:00am 205 3 G 6 60° 71% - - 51° 60.8° 56.7° - - -
4/25 8:50am 190 4 G 7 60° 71% - - 51° 60.8° 56.7° - - -
4/25 8:40am 192 3 G 6 60° 72% - - 51° 60.8° 56.7° - - -
4/25 8:30am 197 2 G 4 60° 73% - - 51° 60.4° 56.7° - - -
4/25 8:20am 308 2 G 5 59° 75% - - 51° 59.8° 56.7° - - -
4/25 8:10am 234 1 G 4 59° 76% - - 51° 59.8° 56.7° - - -
4/25 8:00am 357 1 G 2 58° 77% - - 51° 58.9° 56.7° - - -
4/25 7:50am 262 1 G 3 58° 77% - - 51° 58.7° 56.7° - - -
4/25 7:40am 259 2 G 4 58° 78% - - 51° 58.7° 56.7° - - -
4/25 7:30am 264 2 G 5 58° 78% - - 51° 58.7° 56.7° - - -
4/25 7:20am 246 2 G 4 57° 78% - - 51° 58.7° 56.7° - - -
4/25 7:10am 296 3 G 5 57° 78% - - 51° 58.7° 56.7° - - -
4/25 7:00am 303 3 G 4 57° 78% - - 51° 58.7° 56.7° - - -
4/25 6:50am 317 2 G 4 57° 78% - - 50° 58.7° 56.7° - - -
4/25 6:40am 329 2 G 4 57° 78% - - 50° 58.7° 56.7° - - -
4/25 6:30am 255 1 G 4 57° 78% - - 50° 58.7° 56.7° - - -
4/25 6:20am 300 2 G 5 57° 78% - - 50° 58.7° 56.7° - - -
4/25 6:10am 284 3 G 6 57° 78% - - 50° 58.7° 56.7° - - -
4/25 6:00am 305 2 G 3 57° 78% - - 50° 58.7° 56.7° - - -
4/25 5:50am 296 3 G 5 57° 78% - - 50° 58.7° 56.7° - - -
4/25 5:40am 279 3 G 6 57° 78% - - 50° 58.7° 56.7° - - -
4/25 5:30am 269 2 G 4 57° 78% - - 50° 58.7° 56.7° - - -
4/25 5:20am 260 2 G 6 57° 78% - - 50° 58.7° 56.7° - - -
4/25 5:10am 238 3 G 6 57° 78% - - 50° 58.7° 56.7° - - -
4/25 5:00am 257 3 G 5 57° 78% - - 50° 58.7° 56.7° - - -
4/25 4:50am 239 4 G 8 57° 78% - - 50° 58.7° 56.7° - - -
4/25 4:40am 248 4 G 9 57° 79% - - 51° 58.7° 56.7° - - -
4/25 4:30am 247 3 G 7 57° 78% - - 50° 58.7° 56.7° - - -
4/25 4:20am 246 3 G 6 57° 79% - - 51° 58.7° 56.7° - - -
4/25 4:10am 235 2 G 5 57° 79% - - 51° 58.7° 56.9° - - -
4/25 4:00am 250 2 G 5 57° 80% - - 51° 58.7° 56.9° - - -
4/25 3:50am 239 2 G 4 57° 81% - - 51° 58.7° 56.9° - - -
4/25 3:40am 259 2 G 5 57° 81% - - 51° 58.7° 56.9° - - -
4/25 3:30am 257 2 G 4 57° 81% - - 51° 58.7° 56.9° - - -
4/25 3:20am 275 2 G 3 57° 80% - - 51° 58.7° 56.9° - - -
4/25 3:10am 225 3 G 5 57° 80% - - 51° 58.7° 56.9° - - -
4/25 3:00am 254 4 G 6 57° 80% - - 51° 58.7° 56.9° - - -
4/25 2:50am 267 1 G 4 57° 79% - - 51° 58.7° 56.9° - - -
4/25 2:40am 229 3 G 7 57° 79% - - 51° 58.7° 56.9° - - -
4/25 2:30am 238 4 G 8 57° 79% - - 51° 58.7° 56.9° - - -
4/25 2:20am 233 3 G 6 57° 78% - - 50° 58.7° 56.9° - - -
4/25 2:10am 228 3 G 7 57° 77% - - 50° 58.7° 57° - - -
4/25 2:00am 212 5 G 9 58° 76% - - 50° 58.7° 57.2° - - -
4/25 1:50am 200 4 G 8 58° 77% - - 51° 58.7° 57.4° - - -
4/25 1:40am 204 4 G 6 58° 78% - - 51° 58.7° 57.4° - - -
4/25 1:30am 216 3 G 6 58° 79% - - 51° 58.7° 57.4° - - -
4/25 1:20am 226 3 G 7 58° 80% - - 52° 58.7° 57.4° - - -
4/25 1:10am 210 4 G 6 58° 81% - - 52° 58.7° 57.4° - - -
4/25 1:00am 229 4 G 8 58° 80% - - 52° 58.7° 57.4° - - -
4/25 12:50am 231 4 G 8 58° 79% - - 52° 58.7° 57.4° - - -
4/25 12:40am 222 4 G 9 58° 77% - - 51° 58.7° 57.7° - - -
4/25 12:30am 252 1 G 5 58° 77% - - 51° 58.7° 57.7° - - -
4/25 12:20am 273 1 G 3 58° 77% - - 51° 58.7° 57.8° - - -
4/25 12:10am 243 2 G 4 58° 76% - - 51° 58.7° 58° - - -
4/25 12:00am 196 3 G 6 58° 77% - - 51° 72.9° 54.5° - - -
4/24 11:50pm 244 2 G 4 58° 79% - - 52° 72.9° 54.5° - - -
4/24 11:40pm 205 1 G 5 58° 79% - - 52° 72.9° 54.5° - - -
4/24 11:30pm 228 3 G 6 58° 79% - - 52° 72.9° 54.5° - - -
4/24 11:20pm 252 4 G 6 59° 78% - - 52° 72.9° 54.5° - - -
4/24 11:10pm 256 3 G 6 59° 77% - - 52° 72.9° 54.5° - - -
4/24 11:00pm 258 4 G 8 59° 77% - - 51° 72.9° 54.5° - - -
4/24 10:50pm 265 3 G 7 59° 76% - - 51° 72.9° 54.5° - - -
4/24 10:40pm 253 4 G 8 59° 76% - - 51° 72.9° 54.5° - - -
4/24 10:30pm 250 4 G 8 59° 76% - - 51° 72.9° 54.5° - - -
4/24 10:20pm 245 5 G 8 59° 75% - - 51° 72.9° 54.5° - - -
4/24 10:10pm 248 4 G 8 59° 75% - - 51° 72.9° 54.5° - - -
4/24 10:00pm 237 5 G 9 59° 75% - - 51° 72.9° 54.5° - - -
4/24 9:50pm 238 5 G 10 60° 75% - - 52° 72.9° 54.5° - - -
4/24 9:40pm 244 4 G 9 60° 75% - - 52° 72.9° 54.5° - - -
4/24 9:30pm 235 4 G 8 60° 75% - - 52° 72.9° 54.5° - - -
4/24 9:20pm 215 4 G 7 60° 75% - - 52° 72.9° 54.5° - - -
4/24 9:10pm 213 4 G 8 60° 74% - - 52° 72.9° 54.5° - - -
4/24 9:00pm 217 5 G 8 60° 75% - - 52° 72.9° 54.5° - - -
4/24 8:50pm 219 4 G 8 61° 74% - - 52° 72.9° 54.5° - - -
4/24 8:40pm 215 5 G 9 61° 74% - - 53° 72.9° 54.5° - - -
4/24 8:30pm 241 4 G 8 61° 74% - - 53° 72.9° 54.5° - - -
4/24 8:20pm 247 4 G 8 61° 73% - - 52° 72.9° 54.5° - - -
4/24 8:10pm 231 3 G 6 61° 72% - - 52° 72.9° 54.5° - - -
4/24 8:00pm 229 3 G 6 61° 70% - - 51° 72.9° 54.5° - - -
4/24 7:50pm 210 4 G 7 61° 70% - - 52° 72.9° 54.5° - - -
4/24 7:40pm 201 4 G 8 61° 71% - - 52° 72.9° 54.5° - - -
4/24 7:30pm 221 5 G 9 61° 71% - - 52° 72.9° 54.5° - - -
4/24 7:20pm 220 5 G 9 62° 72% - - 52° 72.9° 54.5° - - -
4/24 7:10pm 210 5 G 10 62° 71% - - 53° 72.9° 54.5° - - -
4/24 7:00pm 219 5 G 10 62° 70% - - 53° 72.9° 54.5° - - -
4/24 6:50pm 232 6 G 12 63° 70% - - 53° 72.9° 54.5° - - -
4/24 6:40pm 239 7 G 12 63° 69% - - 53° 72.9° 54.5° - - -
4/24 6:30pm 226 7 G 12 64° 66% - - 53° 72.9° 54.5° - - -
4/24 6:20pm 236 7 G 11 65° 66% - - 53° 72.9° 54.5° - - -
4/24 6:10pm 241 7 G 12 65° 65% - - 53° 72.9° 54.5° - - -
4/24 6:00pm 251 6 G 11 65° 63% - - 52° 72.9° 54.5° - - -